Flag for Iran Weather past 2 weeks in Bandar-Abbas, Iran

Now
75 °F

Sunny.


Feels Like: 78 °F
Forecast: 54 / 76 °F
Wind: 12 mph from South

Location: Bandarabbass

Current Time: Jan 27, 2015 at 12:52:02 PM

Latest Report: Jan 27, 2015 at 12:30 PM


Visibility: 10 mi

Pressure: 30.09 "Hg

Humidity: 50%

Dew point: 55 °F

Location of Bandar-AbbasLocation

Historic Weather in Bandar-Abbas — Graph

°F

Bandar-Abbas temperature yesterday

Maximum temperature yesterday: 75 °F (at 11:30 AM)
Minimum temperature yesterday: 46 °F (at 7:00 AM)
Average temperature yesterday: 63 °F

Past Weeks' High & Low Weather Summary

 TemperatureHumidityPressure
High81 °F (Jan 15, 12:00 PM)88% (Jan 16, 10:00 PM)30.24 "Hg (Jan 16, 10:00 PM)
Low43 °F (Jan 22, 6:30 AM)10% (Jan 24, 2:30 PM)29.83 "Hg (Jan 19, 2:20 PM)
Average64 °F55%30.08 "Hg
* Reported Jan 12 11:30 AM — Jan 27 11:30 AM, Bandar-Abbas, Weather by CustomWeather, © 2014

Note: Actual official high and low records may vary slightly from our data, if they occured in-between our weather recording intervals... More about our weather records

Advertising

Bandar-Abbas weather history for previous 24 hours

 ConditionsComfort  
Time TempWeatherWind HumidityBarometerVisibility
11:30 AM
Jan 27
75 °FSunny.5 mph41%30.12 "Hg10 mi
11:00 AM75 °FSunny.5 mph41%30.15 "Hg10 mi
10:30 AM73 °FSunny.5 mph41%30.15 "Hg10 mi
10:00 AM72 °FSunny.5 mph41%30.15 "Hg10 mi
9:30 AM68 °FSunny.7 mph46%30.18 "Hg10 mi
9:00 AM68 °FSunny.5 mph46%30.18 "Hg10 mi
8:30 AM64 °FSunny.5 mph56%30.18 "Hg10 mi
8:00 AM63 °FSunny.7 mph59%30.15 "Hg10 mi
7:30 AM57 °FSunny.5 mph72%30.15 "Hg10 mi
7:00 AM55 °FClear.5 mph72%30.15 "Hg10 mi
6:30 AM54 °FClear.5 mph72%30.12 "Hg10 mi
6:00 AM54 °FClear.5 mph77%30.12 "Hg10 mi
5:30 AM52 °FClear.5 mph72%30.12 "Hg10 mi
4:30 AM52 °FClear.5 mph77%30.12 "Hg10 mi
3:30 AM52 °FClear.5 mph77%30.12 "Hg10 mi
2:30 AM52 °FClear.5 mph72%30.12 "Hg10 mi
1:30 AM55 °FClear.5 mph67%30.15 "Hg10 mi
1:00 AM55 °FClear.5 mph67%30.15 "Hg10 mi
12:30 AM55 °FClear.5 mph67%30.15 "Hg10 mi
12:00 AM55 °FClear.5 mph67%30.15 "Hg10 mi
11:30 PM
Jan 26
55 °FClear.5 mph67%30.15 "Hg10 mi
11:00 PM57 °FClear.5 mph72%30.15 "Hg10 mi
10:30 PM57 °FClear.5 mph72%30.15 "Hg10 mi
10:00 PM57 °FClear.5 mph72%30.15 "Hg10 mi
9:30 PM59 °FClear.5 mph68%30.15 "Hg10 mi
9:00 PM57 °FClear.7 mph67%30.15 "Hg10 mi
8:30 PM59 °FClear.7 mph72%30.15 "Hg10 mi
8:00 PM59 °FClear.7 mph68%30.15 "Hg10 mi
7:30 PM61 °FClear.7 mph68%30.15 "Hg10 mi
7:00 PM66 °FClear.5 mph64%30.12 "Hg10 mi
6:30 PM66 °FClear.5 mph56%30.12 "Hg10 mi
6:00 PM68 °FClear.7 mph53%30.12 "Hg10 mi
5:30 PM68 °FSunny.7 mph53%30.12 "Hg10 mi
5:00 PM72 °FSunny.9 mph47%30.12 "Hg10 mi
4:30 PM73 °FSunny.12 mph36%30.12 "Hg10 mi
4:00 PM73 °FSunny.9 mph36%30.12 "Hg10 mi
3:30 PM73 °FSunny.12 mph36%30.12 "Hg10 mi
3:00 PM73 °FSunny.12 mph33%30.12 "Hg10 mi
2:30 PM75 °FSunny.12 mph27%30.12 "Hg10 mi
2:00 PM75 °FSunny.12 mph29%30.12 "Hg10 mi
1:30 PM75 °FSunny.16 mph25%30.18 "Hg10 mi
1:00 PM75 °FSunny.9 mph24%30.18 "Hg10 mi
12:30 PM75 °FSunny.9 mph27%30.18 "Hg10 mi
12:00 PM75 °FSunny.5 mph24%30.18 "Hg10 mi
Weather by CustomWeather, © 2014

See weather overviewHow to use our weather pages